This is the latest recevied weather packets stored in our database for station/object WD4IXD. If no packets are shown the sender has not sent any weather packets the latest 10 day(s).
| Time | Temp. | Humidity | Pressure | Rain* | Wind** | Luminosity | Snow |
|---|---|---|---|---|---|---|---|
| 1777929304 | 22.22° C | 23% | 1010.3 hPa | 0 mm | - | 417 W/m² | - |
| 1777929015 | 22.78° C | 23% | 1010.3 hPa | 0 mm | - | 420 W/m² | - |
| 1777928704 | 22.78° C | 23% | 1010.3 hPa | 0 mm | - | 1020 W/m² | - |
| 1777928404 | 22.22° C | 25% | 1010.4 hPa | 0 mm | - | 445 W/m² | - |
| 1777928114 | 21.67° C | 23% | 1010.5 hPa | 0 mm | - | 735 W/m² | - |
| 1777927804 | 21.11° C | 24% | 1010.5 hPa | 0 mm | - | 838 W/m² | - |
| 1777927515 | 21.11° C | 25% | 1010.6 hPa | 0 mm | - | 867 W/m² | - |
| 1777927203 | 20.56° C | 25% | 1010.7 hPa | 0 mm | - | 610 W/m² | - |
| 1777926915 | 20.56° C | 25% | 1010.8 hPa | 0 mm | - | 450 W/m² | - |
| 1777926603 | 21.11° C | 25% | 1010.8 hPa | 0 mm | - | 309 W/m² | - |
| 1777926315 | 21.11° C | 24% | 1010.8 hPa | 0 mm | - | 380 W/m² | - |
| 1777926004 | 21.67° C | 23% | 1010.8 hPa | 0 mm | - | 352 W/m² | - |
| 1777925716 | 21.67° C | 23% | 1010.7 hPa | 0 mm | - | 455 W/m² | - |
| 1777925404 | 22.22° C | 22% | 1010.7 hPa | 0 mm | - | 380 W/m² | - |
| 1777925104 | 23.33° C | 21% | 1010.7 hPa | 0 mm | - | 598 W/m² | - |
| 1777924804 | 23.89° C | 21% | 1010.8 hPa | 0 mm | - | 666 W/m² | - |
| 1777924515 | 24.44° C | 20% | 1010.7 hPa | 0 mm | - | 962 W/m² | - |
| 1777924204 | 24.44° C | 20% | 1010.8 hPa | 0 mm | - | 886 W/m² | - |
| 1777923915 | 23.89° C | 21% | 1010.9 hPa | 0 mm | - | 824 W/m² | - |
| 1777923604 | 23.89° C | 21% | 1010.9 hPa | 0 mm | - | 923 W/m² | - |
| 1777923315 | 23.89° C | 22% | 1010.8 hPa | 0 mm | - | 1034 W/m² | - |
| 1777923004 | 23.33° C | 22% | 1010.9 hPa | 0 mm | - | 918 W/m² | - |
| 1777922715 | 23.33° C | 22% | 1010.9 hPa | 0 mm | - | 1014 W/m² | - |
| 1777922404 | 23.33° C | 23% | 1010.9 hPa | 0 mm | - | 1011 W/m² | - |
| 1777922115 | 22.78° C | 24% | 1010.9 hPa | 0 mm | - | 1027 W/m² | - |
* Rain latest hour (hover to see other rain measurements)
** Current wind speed in m/s (hover to see current wind gust speed)